[[{"header":{"parameterUnit":"m.s-1","parameterCategory":1,"la1":30.2991,"la2":30.254,"lo1":-89.0895,"lo2":-89.0444,"dy":0.0017,"dx":0.0017,"nx":28,"ny":28,"refTime":"2025-05-31T09:00:00:Z","depth":0,"parameterNumber":2,"parameterNumberName":"U-component_of_WINDS"},"data":[0,0,0,0,0,0,0,0,0,0,0,0,0,0,0,0,0,0,0,0,0,0,0,0,0,0,0,0,0,0,0,0,0,0,0,0,0,0,0,0,0,0,0,0,0,0,0,0,0,0,0,0,0,0,0,0,0,0,-0.5119,-0.5117,0,-0.5013,-0.5012,-0.501,-0.4936,-0.4935,-0.4934,-0.4934,-0.4825,-0.4823,-0.482,0,0,0,0,0,0,0,0,0,0,0,0,0,-0.5255,-0.5253,-0.5119,-0.5117,-0.5116,-0.5013,-0.5012,-0.501,-0.4936,-0.4935,-0.4934,-0.4934,-0.4826,-0.4823,-0.482,0,0,0,0,0,0,0,0,0,0,0,0,0,-0.5178,-0.5253,-0.5119,-0.5066,-0.5061,-0.5013,-0.5012,-0.501,-0.4936,-0.4935,-0.4934,-0.4933,-0.4827,-0.4823,-0.482,-0.4816,0,0,-0.4809,-0.4808,0,0,0,0,0,0,0,0,-0.5182,-0.5173,-0.5075,-0.507,-0.5063,-0.4986,-0.502,-0.4945,-0.4936,-0.4983,-0.4934,-0.4933,-0.4879,-0.4872,-0.4854,-0.4811,-0.4806,-0.4809,-0.4807,-0.4805,-0.4804,0,0,0,0,0,0,0,-0.5188,-0.5177,-0.5077,-0.5074,-0.5067,-0.5048,-0.5036,-0.5005,-0.4938,-0.4979,-0.4973,-0.4962,-0.4876,-0.4857,-0.4851,-0.4805,-0.4809,-0.4806,-0.4804,-0.4802,-0.4754,-0.4755,0,0,0,0,0,0,-0.5201,-0.5182,-0.508,-0.5074,-0.5122,-0.5046,-0.5033,-0.5012,-0.4938,-0.4926,-0.4963,-0.4959,-0.4864,-0.4855,-0.4846,-0.4837,-0.4805,-0.4802,-0.48,-0.4753,-0.4754,-0.4755,0,0,0,0,0,0,-0.5205,-0.5193,-0.5084,-0.5126,-0.5111,-0.5045,-0.5022,-0.501,-0.4992,-0.4925,-0.4913,-0.4956,-0.4863,-0.4851,-0.4824,-0.4833,-0.48,-0.4797,-0.4752,-0.4753,-0.4754,-0.482,0,0,0,0,0,0,-0.5209,-0.5195,-0.5193,-0.5127,-0.5109,-0.5064,-0.5023,-0.5009,-0.4986,-0.498,-0.4916,-0.4904,-0.4861,-0.483,-0.4821,-0.4827,-0.4794,-0.4751,-0.4753,-0.4754,-0.4816,-0.4823,-0.4828,0,0,0,0,0,-0.5214,-0.5215,-0.5193,-0.5181,-0.5105,-0.5065,-0.5055,-0.5005,-0.4987,-0.4984,-0.4942,-0.4906,-0.4833,-0.4828,-0.4817,-0.4822,-0.475,-0.4752,-0.4754,-0.4814,-0.4822,-0.4828,0,0,0,0,0,0,-0.5283,-0.5205,-0.518,-0.516,-0.512,-0.5052,-0.5048,-0.5015,-0.4979,-0.4975,-0.4914,-0.49,-0.488,-0.4848,-0.4843,-0.4815,-0.4787,-0.4787,-0.4837,-0.4843,-0.4849,-0.4858,-0.4792,0,0,0,0,0,-0.5296,-0.5271,-0.5204,-0.5192,-0.5173,-0.5114,-0.5095,-0.506,-0.5016,-0.4998,-0.4954,-0.4912,-0.488,-0.486,-0.4826,-0.4811,-0.4796,-0.481,-0.4816,-0.4821,-0.4822,-0.4812,-0.4817,-0.4761,-0.4761,-0.4761,0,0,-0.5323,-0.5277,-0.5264,-0.5205,-0.517,-0.5144,-0.51,-0.5075,-0.5056,-0.4994,-0.4966,-0.4932,-0.4882,-0.4861,-0.485,-0.4834,-0.4834,-0.4823,-0.4828,-0.4826,-0.4814,-0.482,-0.4825,-0.4762,-0.4762,-0.4762,0,0,-0.5359,-0.5321,-0.5308,-0.5273,-0.5221,-0.5181,-0.5178,-0.5116,-0.5091,-0.5062,-0.5016,-0.4991,-0.4937,-0.4903,-0.4878,-0.4901,-0.4868,-0.4892,-0.4924,-0.4915,-0.4919,-0.4923,-0.4932,-0.4936,-0.4893,-0.4893,-0.4893,0,-0.5398,-0.5358,-0.5305,-0.5283,-0.5258,-0.5201,-0.5188,-0.5157,-0.5096,-0.508,-0.5063,-0.4994,-0.4956,-0.4927,-0.4932,-0.4914,-0.4909,-0.4899,-0.4923,-0.4926,-0.4929,-0.4937,-0.494,-0.4896,-0.4896,-0.4896,-0.4895,0,-0.541,-0.5383,-0.5378,-0.5322,-0.5296,-0.5278,-0.5222,-0.5203,-0.517,-0.5133,-0.5104,-0.5056,-0.5012,-0.5002,-0.497,-0.4969,-0.4961,-0.4935,-0.4906,-0.4939,-0.4945,-0.4947,-0.4901,-0.49,-0.4899,-0.4898,0,0,-0.5487,-0.5401,-0.54,-0.5374,-0.5311,-0.5289,-0.5269,-0.5226,-0.5211,-0.5171,-0.5152,-0.5107,-0.5083,-0.5055,-0.5018,-0.501,-0.5033,-0.4985,-0.4983,-0.4996,-0.5029,-0.505,-0.5054,-0.501,-0.501,-0.501,-0.5033,0,-0.5513,-0.5474,-0.5425,-0.5402,-0.5377,-0.5323,-0.5305,-0.5265,-0.5229,-0.5202,-0.5162,-0.5132,-0.5101,-0.5084,-0.5074,-0.5032,-0.5038,-0.503,-0.4992,-0.4992,-0.5008,-0.5057,-0.5079,-0.5103,-0.5035,-0.5036,-0.5036,0,-0.5539,-0.5502,-0.5477,-0.5417,-0.5405,-0.539,-0.5347,-0.5322,-0.5275,-0.525,-0.5219,-0.518,-0.5155,-0.5129,-0.5095,-0.509,-0.5072,-0.5049,-0.5049,-0.5044,-0.5017,-0.5055,-0.511,-0.5114,-0.5039,-0.5039,-0.5039,0,-0.5599,-0.5543,-0.552,-0.5499,-0.5429,-0.542,-0.539,-0.5342,-0.532,-0.5282,-0.5267,-0.5227,-0.5205,-0.5175,-0.5126,-0.5111,-0.5097,-0.5067,-0.5076,-0.5077,-0.5076,-0.5077,-0.513,-0.5063,-0.5063,-0.5063,-0.5063,0,-0.5634,-0.5621,-0.5546,-0.5533,-0.5517,-0.5461,-0.5446,-0.5411,-0.5369,-0.5348,-0.5298,-0.5279,-0.5215,-0.5189,-0.515,-0.5128,-0.5118,-0.5097,-0.5087,-0.5102,-0.5105,-0.509,-0.5088,-0.5064,-0.5064,-0.5064,-0.5063,0,-0.5698,-0.5648,-0.562,-0.5556,-0.5539,-0.553,-0.5475,-0.546,-0.5421,-0.5395,-0.5385,-0.5325,-0.5291,-0.5239,-0.5189,-0.5163,-0.5148,-0.5131,-0.5164,-0.5159,-0.5171,-0.5171,-0.5217,-0.522,-0.5151,-0.5151,-0.5152,0,-0.5725,-0.5714,-0.5648,-0.563,-0.5602,-0.5574,-0.5551,-0.5496,-0.5474,-0.542,-0.5411,-0.5374,-0.5341,-0.5289,-0.5241,-0.5203,-0.5185,-0.5204,-0.5179,-0.5195,-0.5187,-0.5188,-0.5187,-0.521,-0.5211,-0.5212,-0.5213,0,-0.5777,-0.5753,-0.5722,-0.5682,-0.5656,-0.5621,-0.5585,-0.5573,-0.5509,-0.5487,-0.5452,-0.5427,-0.5376,-0.534,-0.5295,-0.5264,-0.5228,-0.5221,-0.5221,-0.5237,-0.5257,-0.5247,-0.5181,-0.522,-0.5219,-0.5219,-0.5218,-0.5218,-0.5824,-0.5811,-0.5764,-0.5731,-0.5697,-0.5664,-0.5647,-0.5606,-0.5576,-0.5531,-0.55,-0.5467,-0.5421,-0.5357,-0.5328,-0.5302,-0.5286,-0.5286,-0.5286,-0.5287,-0.5293,-0.526,-0.5293,-0.5293,-0.5293,-0.5292,-0.5292,0,-0.5874,-0.5841,-0.5811,-0.5762,-0.5736,-0.5704,-0.5661,-0.5642,-0.5614,-0.5574,-0.5542,-0.5502,-0.5467,-0.5416,-0.5376,-0.5365,-0.5348,-0.5357,-0.5357,-0.5351,-0.5309,-0.5313,-0.5372,-0.5372,-0.5372,-0.5372,-0.5372,-0.5372,-0.5898,-0.5876,-0.5846,-0.5806,-0.5772,-0.574,-0.5719,-0.5688,-0.5656,-0.5614,-0.5584,-0.5551,-0.5506,-0.5463,-0.5429,-0.5415,-0.5404,-0.5418,-0.5399,-0.5361,-0.5354,-0.5347,-0.5351,-0.5416,-0.5416,-0.5443,-0.5443,-0.5444]},{"header":{"parameterUnit":"m.s-1","parameterCategory":1,"la1":30.2991,"la2":30.254,"lo1":-89.0895,"lo2":-89.0444,"dy":0.0017,"dx":0.0017,"nx":28,"ny":28,"refTime":"2025-05-31T09:00:00:Z","depth":0,"parameterNumber":3,"parameterNumberName":"V-component_of_WINDS"},"data":[0,0,0,0,0,0,0,0,0,0,0,0,0,0,0,0,0,0,0,0,0,0,0,0,0,0,0,0,0,0,0,0,0,0,0,0,0,0,0,0,0,0,0,0,0,0,0,0,0,0,0,0,0,0,0,0,0,0,-1.0918,-1.0918,0,-1.0922,-1.0922,-1.0922,-1.095,-1.0951,-1.0951,-1.0952,-1.0953,-1.0953,-1.0952,0,0,0,0,0,0,0,0,0,0,0,0,0,-1.0933,-1.0932,-1.0918,-1.0918,-1.0918,-1.0922,-1.0922,-1.0922,-1.095,-1.0951,-1.0952,-1.0952,-1.0954,-1.0953,-1.0952,0,0,0,0,0,0,0,0,0,0,0,0,0,-1.093,-1.0932,-1.0918,-1.0932,-1.0934,-1.0922,-1.0922,-1.0922,-1.095,-1.0951,-1.0952,-1.0953,-1.0954,-1.0953,-1.0952,-1.0925,0,0,-1.0949,-1.0949,0,0,0,0,0,0,0,0,-1.093,-1.093,-1.093,-1.0931,-1.0933,-1.0937,-1.0928,-1.0923,-1.0949,-1.0944,-1.0952,-1.0953,-1.0947,-1.0947,-1.0945,-1.0925,-1.0925,-1.0949,-1.0949,-1.0948,-1.0948,0,0,0,0,0,0,0,-1.093,-1.093,-1.0919,-1.093,-1.0932,-1.0938,-1.0939,-1.0927,-1.0939,-1.0944,-1.0946,-1.0946,-1.0948,-1.0946,-1.0945,-1.0925,-1.0949,-1.0948,-1.0948,-1.0947,-1.0886,-1.0885,0,0,0,0,0,0,-1.0929,-1.093,-1.0919,-1.0919,-1.0934,-1.0937,-1.0938,-1.0934,-1.0939,-1.0941,-1.0946,-1.0948,-1.0947,-1.0946,-1.0945,-1.0916,-1.0948,-1.0947,-1.0947,-1.0887,-1.0886,-1.0885,0,0,0,0,0,0,-1.0929,-1.0928,-1.0919,-1.0925,-1.0924,-1.0936,-1.0931,-1.0934,-1.0932,-1.0941,-1.0943,-1.0941,-1.0948,-1.0947,-1.0931,-1.0917,-1.0947,-1.0946,-1.0889,-1.0887,-1.0885,-1.0857,0,0,0,0,0,0,-1.0929,-1.0928,-1.0918,-1.0925,-1.0924,-1.0905,-1.093,-1.0933,-1.0931,-1.0933,-1.0937,-1.0939,-1.0948,-1.0932,-1.093,-1.0916,-1.0945,-1.089,-1.0888,-1.0886,-1.0859,-1.0854,-1.085,0,0,0,0,0,-1.093,-1.0909,-1.0917,-1.0916,-1.0912,-1.0904,-1.0904,-1.0916,-1.0929,-1.092,-1.0925,-1.0939,-1.0918,-1.093,-1.0928,-1.0913,-1.0891,-1.0888,-1.0886,-1.0861,-1.0855,-1.085,0,0,0,0,0,0,-1.0898,-1.091,-1.092,-1.09,-1.0901,-1.0909,-1.0897,-1.0909,-1.0905,-1.0908,-1.0923,-1.0923,-1.0906,-1.0907,-1.0921,-1.0889,-1.0907,-1.0904,-1.0888,-1.0883,-1.0879,-1.0879,-1.0945,0,0,0,0,0,-1.0889,-1.0883,-1.0892,-1.0874,-1.0874,-1.0885,-1.0882,-1.0892,-1.0893,-1.0893,-1.0898,-1.0898,-1.0892,-1.0887,-1.0882,-1.0859,-1.0861,-1.0848,-1.0843,-1.084,-1.0838,-1.0827,-1.0822,-1.0877,-1.0877,-1.0877,0,0,-1.087,-1.0876,-1.087,-1.0868,-1.087,-1.0862,-1.0885,-1.0876,-1.087,-1.0891,-1.0878,-1.0881,-1.0882,-1.0863,-1.0855,-1.0864,-1.0823,-1.0837,-1.0834,-1.0834,-1.0824,-1.0819,-1.0815,-1.0875,-1.0876,-1.0876,0,0,-1.0832,-1.0835,-1.0821,-1.0823,-1.0826,-1.0834,-1.0831,-1.0837,-1.0841,-1.0827,-1.0843,-1.0836,-1.0825,-1.0826,-1.0825,-1.0788,-1.0801,-1.0785,-1.0763,-1.0753,-1.0749,-1.0745,-1.0734,-1.073,-1.0783,-1.0783,-1.0783,0,-1.0808,-1.0798,-1.0812,-1.0803,-1.0802,-1.0821,-1.0808,-1.0808,-1.0809,-1.0808,-1.0818,-1.0806,-1.0807,-1.079,-1.0781,-1.0779,-1.0776,-1.0786,-1.0749,-1.0745,-1.0742,-1.0731,-1.0727,-1.0781,-1.0781,-1.0781,-1.0782,0,-1.0769,-1.0762,-1.075,-1.0753,-1.075,-1.0738,-1.075,-1.0745,-1.0755,-1.0762,-1.0748,-1.0751,-1.0748,-1.0744,-1.0753,-1.0728,-1.0734,-1.0746,-1.0765,-1.0735,-1.0725,-1.0721,-1.0779,-1.0779,-1.078,-1.078,0,0,-1.0712,-1.0723,-1.0719,-1.0721,-1.0726,-1.0721,-1.071,-1.0708,-1.0704,-1.0704,-1.0696,-1.0686,-1.0698,-1.0696,-1.0705,-1.0696,-1.0669,-1.071,-1.071,-1.0704,-1.0645,-1.0637,-1.0632,-1.0677,-1.0676,-1.0676,-1.0645,0,-1.0677,-1.0661,-1.0674,-1.0655,-1.0649,-1.0668,-1.0659,-1.0661,-1.0667,-1.0662,-1.0668,-1.0662,-1.0677,-1.0677,-1.0668,-1.0674,-1.0658,-1.0676,-1.067,-1.067,-1.0672,-1.0627,-1.0618,-1.0589,-1.0641,-1.0641,-1.064,0,-1.0635,-1.0635,-1.0616,-1.0624,-1.0622,-1.0614,-1.0614,-1.0609,-1.0612,-1.0617,-1.0616,-1.0627,-1.0617,-1.0635,-1.0621,-1.0634,-1.0632,-1.0634,-1.0633,-1.0635,-1.0654,-1.0628,-1.058,-1.0576,-1.0634,-1.0634,-1.0635,0,-1.0598,-1.0592,-1.0581,-1.0582,-1.059,-1.0584,-1.0588,-1.0592,-1.059,-1.0589,-1.0589,-1.0586,-1.0585,-1.0583,-1.0593,-1.0605,-1.0579,-1.0597,-1.0584,-1.0583,-1.0578,-1.0579,-1.0531,-1.0574,-1.0574,-1.0574,-1.0574,0,-1.0559,-1.0547,-1.0565,-1.0558,-1.0545,-1.056,-1.0546,-1.0551,-1.0555,-1.0549,-1.0564,-1.0558,-1.0572,-1.0567,-1.0575,-1.0564,-1.0563,-1.0567,-1.057,-1.0567,-1.0566,-1.0567,-1.057,-1.0573,-1.0573,-1.0574,-1.0574,0,-1.0515,-1.0527,-1.0516,-1.0526,-1.0528,-1.0518,-1.0527,-1.0521,-1.0528,-1.052,-1.0519,-1.053,-1.0526,-1.0536,-1.0532,-1.0538,-1.0522,-1.0527,-1.0522,-1.0524,-1.0511,-1.0513,-1.0462,-1.0457,-1.0502,-1.0502,-1.0501,0,-1.0491,-1.0483,-1.0492,-1.049,-1.0493,-1.0489,-1.0488,-1.0501,-1.05,-1.0503,-1.0497,-1.0494,-1.0493,-1.0485,-1.0492,-1.0489,-1.0495,-1.0478,-1.0495,-1.0493,-1.0497,-1.0499,-1.0498,-1.0475,-1.0474,-1.0474,-1.0474,0,-1.0446,-1.0453,-1.0452,-1.0452,-1.0451,-1.0452,-1.0454,-1.0451,-1.0466,-1.0463,-1.0459,-1.0458,-1.0456,-1.0453,-1.0453,-1.0455,-1.0467,-1.0468,-1.0465,-1.0463,-1.0461,-1.0464,-1.0514,-1.0469,-1.047,-1.047,-1.047,-1.0471,-1.0413,-1.0407,-1.0414,-1.0412,-1.0415,-1.0417,-1.0413,-1.042,-1.0417,-1.0417,-1.0425,-1.042,-1.0424,-1.0425,-1.0427,-1.0423,-1.0431,-1.0426,-1.0425,-1.0424,-1.0423,-1.0461,-1.0422,-1.0423,-1.0423,-1.0423,-1.0423,0,-1.0371,-1.0377,-1.0375,-1.0378,-1.0377,-1.0389,-1.0392,-1.039,-1.0386,-1.0389,-1.0388,-1.0384,-1.0382,-1.0389,-1.0388,-1.0384,-1.0389,-1.0383,-1.0384,-1.0385,-1.0415,-1.0419,-1.0379,-1.0379,-1.0379,-1.0379,-1.0379,-1.0379,-1.035,-1.0341,-1.0349,-1.0342,-1.0347,-1.0344,-1.0345,-1.0346,-1.0349,-1.0345,-1.0344,-1.0349,-1.0354,-1.0353,-1.0352,-1.0354,-1.0354,-1.0346,-1.035,-1.0378,-1.0383,-1.0387,-1.039,-1.0345,-1.0345,-1.0321,-1.0321,-1.032]}]]